Погода в Панине

Россия / Рязанская область     54°27′56″N   40°16′17″E
темп.,
°C
ветер,
м/с
пор.,
м/с
влажн.,
%
обл.,
%
осадки,
мм/ч
давл.,
гПа
погр.,
м
21 апреля, ср
ср2100:00+3всв61498100 4.9 1009810
03:00+5всв61395100 9.7 1003827
06:00+4юз4998100 3.2 1002356
09:00+3зюз2697100 7.1 1005308
12:00+3зюз3698100 1.5 1007368
15:00+5зюз5785100 1.5 1009702
18:00+5зюз4881100 0.0 1011631
21:00+4ююз4889100 0.0 1013303
22 апреля, чт
чт2200:00+4ююз41090100 0.0 1014321
03:00+5юз3792100 0.0 1015310
06:00+4юз369192 0.0 1016428
09:00+7юз477628 0.0 1018708
12:00+11юз686293 0.1 10181483
15:00+10ююз4869100 0.1 1018809
18:00+12ю48705 0.0 1018449
21:00+8ю411866 0.0 1019218
23 апреля, пт
пт2300:00+7ю4128580 0.0 1019235
03:00+6ю4118891 0.0 1018184
06:00+8ю41281100 0.0 1019254
09:00+12ю5116696 0.0 1019452
12:00+15ю794960 0.0 10182334
15:00+16ю695069 0.0 10171780
18:00+14ююв485968 0.0 1015290
21:00+10юв512735 0.0 1015235
24 апреля, сб
сб2400:00+9ююв5148064 0.1 1013304
03:00+8юв5138847 0.1 1010304
06:00+8ююв6138996 0.1 1009412
09:00+4з5793100 0.7 1009442
12:00+5зюз3896100 3.7 1010721
15:00+7сз4676100 4.4 1009959
18:00+8сз257199 0.7 1008642
21:00+4з38772 0.9 1009133
25 апреля, вс
вс2500:00+2зюз410835 0.0 1010203
03:00+2зюз410875 0.0 1010223
06:00+1зюз411885 0.0 1011374
09:00+5з687012 0.0 10111112
12:00+8зюз6855100 0.8 10111921
15:00+8зюз795255 1.6 10112050
18:00+7зюз695521 0.3 1011846
21:00+4ююз497899 0.8 1012172